| time (UTC) | temp F | wind direction | speed knots | gust knots | rain 1hr in | rain 24hr in | rain mn in | humidity % | barometer mb |
| 20260509061550 | 49 | 302 | 1.7 | 3.5 | 0.00 | 0.00 | 0.00 | 49 | 1023.9 |
| 20260509060037 | 49 | 295 | 1.7 | 4.3 | 0.00 | 0.00 | 0.00 | 50 | 1024.0 |
| 20260509054537 | 48 | 297 | 0.0 | 3.5 | 0.00 | 0.00 | 0.00 | 54 | 1024.1 |
| 20260509053032 | 47 | 308 | 0.0 | 1.7 | 0.00 | 0.00 | 0.00 | 55 | 1024.0 |
| 20260509051528 | 45 | 330 | 0.0 | 0.9 | 0.00 | 0.00 | 0.00 | 63 | 1024.1 |
| 20260509050027 | 43 | 330 | 0.0 | 0.9 | 0.00 | 0.00 | 0.00 | 69 | 1024.1 |
| 20260509044521 | 42 | 330 | 0.0 | 0.9 | 0.00 | 0.00 | 0.00 | 68 | 1024.2 |
| 20260509043019 | 39 | 330 | 0.0 | 0.0 | 0.00 | 0.00 | 0.00 | 75 | 1024.4 |
| 20260509041521 | 35 | 330 | 0.0 | 0.0 | 0.00 | 0.00 | 0.00 | 79 | 1024.3 |
| 20260509040033 | 38 | 330 | 0.0 | 0.0 | 0.00 | 0.00 | 0.00 | 73 | 1024.2 |
| 20260509034517 | 34 | 330 | 0.0 | 0.0 | 0.00 | 0.00 | 0.00 | 81 | 1024.3 |
| 20260509033016 | 29 | 330 | 0.0 | 0.0 | 0.00 | 0.00 | 0.00 | 85 | 1024.4 |
| 20260509031525 | 29 | 330 | 0.0 | 0.0 | 0.00 | 0.00 | 0.00 | 87 | 1024.4 |
| 20260509030014 | 28 | 330 | 0.0 | 0.0 | 0.00 | 0.00 | 0.00 | 82 | 1024.3 |
| 20260509024511 | 29 | 330 | 0.0 | 0.0 | 0.00 | 0.00 | 0.00 | 83 | 1024.4 |
| 20260509023010 | 29 | 330 | 0.0 | 0.0 | 0.00 | 0.00 | 0.00 | 79 | 1024.3 |
| 20260509021508 | 29 | 330 | 0.0 | 0.0 | 0.00 | 0.00 | 0.00 | 78 | 1024.4 |
| 20260509020005 | 30 | 330 | 0.0 | 0.0 | 0.00 | 0.00 | 0.00 | 76 | 1024.5 |
| 20260509014507 | 30 | 330 | 0.0 | 0.0 | 0.00 | 0.00 | 0.00 | 75 | 1024.5 |
| 20260509013103 | 31 | 330 | 0.0 | 0.0 | 0.00 | 0.00 | 0.00 | 73 | 1024.5 |
| 20260509011559 | 31 | 330 | 0.0 | 0.0 | 0.00 | 0.00 | 0.00 | 72 | 1024.6 |
| 20260509004606 | 32 | 330 | 0.0 | 0.0 | 0.00 | 0.00 | 0.00 | 66 | 1024.5 |
| 20260509003053 | 33 | 330 | 0.0 | 0.9 | 0.00 | 0.00 | 0.00 | 65 | 1024.5 |
| 20260509001548 | 34 | 330 | 0.0 | 0.9 | 0.00 | 0.00 | 0.00 | 63 | 1024.6 |
| 20260509000047 | 35 | 330 | 0.0 | 0.0 | 0.00 | 0.00 | 0.00 | 60 | 1024.7 |
| 20260508234549 | 36 | 330 | 0.0 | 0.0 | 0.00 | 0.00 | 0.00 | 57 | 1024.6 |
| 20260508233041 | 37 | 330 | 0.0 | 0.9 | 0.00 | 0.00 | 0.00 | 54 | 1024.6 |
| 20260508231535 | 39 | 330 | 0.0 | 0.9 | 0.00 | 0.00 | 0.00 | 49 | 1024.7 |
| 20260508230043 | 39 | 330 | 0.0 | 1.7 | 0.00 | 0.00 | 0.00 | 48 | 1024.8 |
| 20260508224531 | 39 | 330 | 0.0 | 0.9 | 0.00 | 0.00 | 0.00 | 49 | 1024.8 |
| 20260508223033 | 41 | 330 | 0.0 | 0.9 | 0.00 | 0.00 | 0.00 | 45 | 1024.8 |
| 20260508221527 | 42 | 328 | 0.0 | 1.7 | 0.00 | 0.00 | 0.00 | 42 | 1024.6 |
| 20260508220101 | 42 | 328 | 0.0 | 0.9 | 0.00 | 0.00 | 0.00 | 42 | 1024.6 |
| 20260508214521 | 44 | 355 | 0.0 | 3.5 | 0.00 | 0.00 | 0.00 | 38 | 1024.6 |
| 20260508213021 | 44 | 346 | 0.9 | 3.5 | 0.00 | 0.00 | 0.00 | 39 | 1024.6 |
| 20260508211524 | 44 | 339 | 0.0 | 4.3 | 0.00 | 0.00 | 0.00 | 39 | 1024.4 |
| 20260508210020 | 45 | 39 | 0.9 | 5.2 | 0.00 | 0.00 | 0.00 | 40 | 1024.4 |
| 20260508204521 | 45 | 346 | 0.0 | 5.2 | 0.00 | 0.00 | 0.00 | 41 | 1024.3 |
| 20260508203017 | 46 | 336 | 0.0 | 4.3 | 0.00 | 0.00 | 0.00 | 39 | 1024.2 |
| 20260508201521 | 46 | 315 | 0.9 | 4.3 | 0.00 | 0.00 | 0.00 | 40 | 1024.2 |
| 20260508200017 | 46 | 341 | 0.0 | 2.6 | 0.00 | 0.00 | 0.00 | 40 | 1024.1 |
| 20260508194514 | 47 | 342 | 0.0 | 0.9 | 0.00 | 0.00 | 0.00 | 38 | 1024.0 |
| 20260508193012 | 48 | 302 | 0.0 | 2.6 | 0.00 | 0.00 | 0.00 | 38 | 1024.0 |
| 20260508191517 | 49 | 295 | 0.9 | 4.3 | 0.00 | 0.00 | 0.00 | 36 | 1023.9 |
| 20260508190012 | 50 | 301 | 1.7 | 3.5 | 0.00 | 0.00 | 0.00 | 35 | 1023.8 |
| 20260508184512 | 52 | 319 | 0.0 | 3.5 | 0.00 | 0.00 | 0.00 | 34 | 1023.7 |
| 20260508183010 | 53 | 327 | 0.0 | 4.3 | 0.00 | 0.00 | 0.00 | 33 | 1023.6 |
| 20260508181507 | 54 | 303 | 1.7 | 6.1 | 0.00 | 0.00 | 0.00 | 31 | 1023.4 |
| 20260508180009 | 55 | 8 | 0.9 | 7.0 | 0.00 | 0.00 | 0.00 | 29 | 1023.2 |
| 20260508174509 | 56 | 301 | 2.6 | 5.2 | 0.00 | 0.00 | 0.00 | 28 | 1023.0 |
| 20260508173004 | 57 | 316 | 1.7 | 7.0 | 0.00 | 0.00 | 0.00 | 28 | 1023.0 |
| 20260508171504 | 57 | 285 | 3.5 | 7.8 | 0.00 | 0.00 | 0.00 | 26 | 1022.8 |
| 20260508170003 | 58 | 309 | 1.7 | 9.6 | 0.00 | 0.00 | 0.00 | 26 | 1022.8 |
| 20260508164503 | 59 | 328 | 1.7 | 7.8 | 0.00 | 0.00 | 0.00 | 27 | 1022.7 |
| 20260508163003 | 60 | 296 | 4.3 | 8.7 | 0.00 | 0.00 | 0.00 | 24 | 1022.6 |
| 20260508161501 | 61 | 326 | 3.5 | 8.7 | 0.00 | 0.00 | 0.00 | 25 | 1022.7 |
| 20260508160001 | 61 | 322 | 2.6 | 9.6 | 0.00 | 0.00 | 0.00 | 24 | 1022.6 |
| 20260508154600 | 62 | 355 | 1.7 | 11.3 | 0.00 | 0.00 | 0.00 | 24 | 1022.6 |
| 20260508153103 | 62 | 330 | 1.7 | 9.6 | 0.00 | 0.00 | 0.00 | 25 | 1022.6 |
| 20260508151602 | 63 | 329 | 0.9 | 7.0 | 0.00 | 0.00 | 0.00 | 25 | 1022.6 |
| 20260508150058 | 63 | 300 | 5.2 | 10.4 | 0.00 | 0.00 | 0.00 | 24 | 1022.6 |
| 20260508144605 | 63 | 307 | 2.6 | 8.7 | 0.00 | 0.00 | 0.00 | 23 | 1022.6 |
| 20260508143059 | 62 | 309 | 4.3 | 8.7 | 0.00 | 0.00 | 0.00 | 24 | 1022.7 |
| 20260508141600 | 63 | 310 | 1.7 | 8.7 | 0.00 | 0.00 | 0.00 | 24 | 1022.7 |
| 20260508140059 | 63 | 291 | 1.7 | 7.0 | 0.00 | 0.00 | 0.00 | 25 | 1022.7 |
| 20260508134606 | 63 | 311 | 0.9 | 6.1 | 0.00 | 0.00 | 0.00 | 28 | 1022.7 |
| 20260508133054 | 63 | 309 | 0.9 | 9.6 | 0.00 | 0.00 | 0.00 | 28 | 1022.8 |
| 20260508131553 | 63 | 355 | 4.3 | 8.7 | 0.00 | 0.00 | 0.00 | 27 | 1022.8 |
| 20260508130052 | 63 | 341 | 3.5 | 7.0 | 0.00 | 0.00 | 0.00 | 27 | 1022.9 |
| 20260508124551 | 63 | 309 | 3.5 | 10.4 | 0.00 | 0.00 | 0.00 | 28 | 1023.0 |
| 20260508123104 | 62 | 291 | 5.2 | 7.8 | 0.00 | 0.00 | 0.00 | 28 | 1023.1 |
| 20260508121551 | 62 | 311 | 3.5 | 7.8 | 0.00 | 0.00 | 0.00 | 29 | 1023.0 |
| 20260508120049 | 63 | 307 | 1.7 | 8.7 | 0.00 | 0.00 | 0.00 | 28 | 1023.1 |
| 20260508114552 | 63 | 307 | 3.5 | 7.0 | 0.00 | 0.00 | 0.00 | 29 | 1023.1 |
| 20260508113058 | 62 | 309 | 2.6 | 10.4 | 0.00 | 0.00 | 0.00 | 28 | 1023.1 |
| 20260508111547 | 63 | 320 | 2.6 | 6.1 | 0.00 | 0.00 | 0.00 | 28 | 1023.0 |
| 20260508110043 | 62 | 360 | 2.6 | 6.1 | 0.00 | 0.00 | 0.00 | 30 | 1023.0 |
| 20260508104543 | 62 | 323 | 1.7 | 7.0 | 0.00 | 0.00 | 0.00 | 28 | 1023.1 |
| 20260508103042 | 61 | 309 | 3.5 | 10.4 | 0.00 | 0.00 | 0.00 | 28 | 1023.2 |
| 20260508101539 | 60 | 324 | 3.5 | 13.9 | 0.00 | 0.00 | 0.00 | 28 | 1023.1 |
| 20260508100037 | 61 | 321 | 4.3 | 9.6 | 0.00 | 0.00 | 0.00 | 27 | 1023.2 |
| 20260508094549 | 61 | 331 | 2.6 | 8.7 | 0.00 | 0.00 | 0.00 | 26 | 1023.1 |
| 20260508093036 | 61 | 317 | 4.3 | 10.4 | 0.00 | 0.00 | 0.00 | 24 | 1023.2 |
| 20260508091540 | 60 | 300 | 6.1 | 12.2 | 0.00 | 0.00 | 0.00 | 23 | 1023.1 |
| 20260508090031 | 59 | 334 | 2.6 | 8.7 | 0.00 | 0.00 | 0.00 | 23 | 1023.2 |
| 20260508084529 | 59 | 312 | 3.5 | 7.0 | 0.00 | 0.00 | 0.00 | 24 | 1023.2 |
| 20260508083025 | 58 | 324 | 4.3 | 9.6 | 0.00 | 0.00 | 0.00 | 24 | 1023.2 |
| 20260508081552 | 57 | 327 | 5.2 | 7.8 | 0.00 | 0.00 | 0.00 | 24 | 1023.3 |
| 20260508080020 | 56 | 326 | 1.7 | 9.6 | 0.00 | 0.00 | 0.00 | 27 | 1023.3 |
| 20260508074518 | 55 | 305 | 1.7 | 7.8 | 0.00 | 0.00 | 0.00 | 26 | 1023.2 |
| 20260508073017 | 56 | 327 | 4.3 | 9.6 | 0.00 | 0.00 | 0.00 | 31 | 1023.2 |
| 20260508071526 | 55 | 293 | 1.7 | 7.8 | 0.00 | 0.00 | 0.00 | 39 | 1023.1 |
| 20260508070008 | 54 | 321 | 2.6 | 7.0 | 0.00 | 0.00 | 0.00 | 41 | 1022.9 |
| 20260508064509 | 52 | 302 | 1.7 | 6.1 | 0.00 | 0.00 | 0.00 | 44 | 1022.8 |
| 20260508063002 | 52 | 321 | 0.9 | 3.5 | 0.00 | 0.00 | 0.00 | 46 | 1022.6 |